GW2897 Weather Reports


Display with metric or nautical units.
time (UTC)temp
F
wind
direction
speed
MPH
gust
MPH
rain 1hr
in
rain 24hr
in
rain mn
in
humidity
%
barometer
mb
20260509180924 70 277 2.0 7.0 0.00 0.00 0.00 81 1011.3
20260509180004 70 261 2.0 6.0 0.00 0.00 0.00 82 1011.3
20260509175403 70 269 3.0 5.0 0.00 0.00 0.00 81 1011.4
20260509174525 70 292 3.0 6.0 0.00 0.00 0.00 81 1011.3
20260509173603 70 258 2.0 6.0 0.00 0.00 0.00 80 1011.3
20260509172726 70 277 2.0 6.0 0.00 0.00 0.00 80 1011.4
20260509171817 70 243 2.0 5.0 0.00 0.00 0.00 81 1011.6
20260509170903 70 281 2.0 5.0 0.00 0.00 0.00 81 1011.5
20260509170004 70 288 3.0 7.0 0.00 0.00 0.00 81 1011.6
20260509165403 70 288 3.0 8.0 0.00 0.00 0.00 80 1011.6
20260509164505 70 269 2.0 8.0 0.00 0.00 0.00 80 1011.7
20260509163603 70 256 2.0 6.0 0.00 0.00 0.00 79 1011.8
20260509162703 70 261 2.0 6.0 0.00 0.00 0.00 80 1011.8
20260509161804 70 233 2.0 4.0 0.00 0.00 0.00 80 1011.9
20260509160903 70 145 2.0 5.0 0.00 0.00 0.00 81 1012.0
20260509160004 69 239 2.0 9.0 0.00 0.00 0.00 81 1011.8
20260509155423 69 268 2.0 7.0 0.00 0.00 0.00 81 1012.0
20260509154504 69 278 2.0 8.0 0.00 0.00 0.00 81 1012.1
20260509153604 69 221 3.0 8.0 0.00 0.00 0.00 81 1012.1
20260509152703 69 268 2.0 11.0 0.00 0.00 0.00 81 1012.1
20260509151804 69 146 3.0 9.0 0.00 0.00 0.00 82 1012.0
20260509150925 69 187 2.0 7.0 0.00 0.00 0.00 80 1011.9
20260509150025 69 212 3.0 8.0 0.00 0.00 0.00 83 1011.8
20260509145405 68 234 3.0 8.0 0.00 0.00 0.00 84 1011.9
20260509144525 68 143 3.0 8.0 0.00 0.00 0.00 83 1012.0
20260509143603 67 258 2.0 6.0 0.00 0.00 0.00 84 1012.1
20260509142703 67 269 2.0 8.0 0.00 0.00 0.00 85 1012.1
20260509141803 67 217 2.0 8.0 0.00 0.00 0.00 85 1012.1
20260509140924 66 166 2.0 6.0 0.00 0.00 0.00 86 1012.1
20260509140004 66 120 1.0 7.0 0.00 0.00 0.00 86 1012.4
20260509135404 65 130 1.0 5.0 0.00 0.00 0.00 87 1012.4
20260509134503 65 269 1.0 3.0 0.00 0.00 0.00 88 1012.4
20260509133626 65 265 1.0 5.0 0.00 0.00 0.00 88 1012.3
20260509132725 65 153 0.0 3.0 0.00 0.00 0.00 88 1012.3
20260509131803 64 178 1.0 6.0 0.00 0.00 0.00 89 1012.2
20260509130927 64 185 0.0 3.0 0.00 0.00 0.00 88 1012.1
20260509130004 64 139 1.0 5.0 0.00 0.00 0.00 90 1012.1
20260509125404 63 126 1.0 5.0 0.00 0.00 0.00 89 1012.0
20260509124504 63 112 0.0 3.0 0.00 0.00 0.00 91 1012.0
20260509123603 62 122 1.0 3.0 0.00 0.00 0.00 92 1012.0
20260509122724 62 150 1.0 4.0 0.00 0.00 0.00 92 1012.0
20260509121804 62 145 1.0 5.0 0.00 0.00 0.00 93 1012.3
20260509120918 61 141 0.0 4.0 0.00 0.00 0.00 94 1012.3
20260509120004 61 117 1.0 4.0 0.00 0.00 0.00 95 1012.1
20260509115403 60 124 0.0 4.0 0.00 0.00 0.00 95 1012.2
20260509114505 60 150 0.0 2.0 0.00 0.00 0.00 95 1012.3
20260509113624 60 136 0.0 2.0 0.00 0.00 0.00 96 1012.2
20260509112703 59 109 0.0 3.0 0.00 0.00 0.00 96 1012.2
20260509111803 58 126 0.0 4.0 0.00 0.00 0.00 96 1012.3
20260509110909 58 120 0.0 1.0 0.00 0.00 0.00 96 1012.5
20260509110004 58 130 0.0 1.0 0.00 0.00 0.00 96 1012.7
20260509105407 57 109 0.0 1.0 0.00 0.00 0.00 97 1012.7
20260509104504 57 122 0.0 1.0 0.00 0.00 0.00 96 1012.5
20260509103624 56 0 0.0 0.0 0.00 0.00 0.00 96 1012.3
20260509102704 55 0 0.0 0.0 0.00 0.00 0.00 96 1012.4
20260509101803 55 0 0.0 0.0 0.00 0.00 0.00 96 1012.5
20260509100903 54 0 0.0 0.0 0.00 0.00 0.00 95 1012.4
20260509100004 55 342 0.0 1.0 0.00 0.00 0.00 95 1012.0
20260509095403 56 115 0.0 2.0 0.00 0.00 0.00 96 1011.6
20260509094504 56 133 0.0 1.0 0.00 0.00 0.00 96 1011.3
20260509093617 54 0 0.0 0.0 0.00 0.00 0.00 95 1011.2
20260509092703 55 0 0.0 0.0 0.00 0.00 0.00 95 1011.4
20260509091804 55 0 0.0 0.0 0.00 0.00 0.00 95 1011.2
20260509090904 55 0 0.0 0.0 0.00 0.00 0.00 95 1011.5
20260509090003 56 0 0.0 0.0 0.00 0.00 0.00 95 1011.5
20260509085403 56 0 0.0 0.0 0.00 0.00 0.00 95 1011.4
20260509084503 56 0 0.0 0.0 0.00 0.00 0.00 95 1011.3
20260509083604 56 0 0.0 0.0 0.00 0.00 0.00 95 1011.1
20260509082703 55 0 0.0 0.0 0.00 0.00 0.00 95 1011.2
20260509081803 55 145 0.0 1.0 0.00 0.00 0.00 95 1011.3
20260509080905 55 0 0.0 0.0 0.00 0.00 0.00 95 1011.5
20260509080004 55 0 0.0 0.0 0.00 0.00 0.00 95 1011.4
20260509075403 55 0 0.0 0.0 0.00 0.00 0.00 95 1011.5
20260509074508 55 0 0.0 0.0 0.00 0.00 0.00 95 1011.7
20260509073605 55 0 0.0 0.0 0.00 0.00 0.00 94 1011.9
20260509072703 55 0 0.0 0.0 0.00 0.00 0.00 94 1011.9
20260509071803 56 0 0.0 0.0 0.00 0.00 0.00 94 1012.0
20260509070903 56 0 0.0 0.0 0.00 0.00 0.00 94 1012.1
20260509070003 56 0 0.0 0.0 0.00 0.00 0.00 94 1012.2
20260509065404 55 0 0.0 0.0 0.00 0.00 0.00 94 1012.4
20260509064504 56 0 0.0 0.0 0.00 0.00 0.00 94 1012.3
20260509063603 56 0 0.0 0.0 0.00 0.00 0.00 94 1012.6
20260509062724 56 0 0.0 0.0 0.00 0.00 0.00 93 1012.5
20260509061803 56 0 0.0 0.0 0.00 0.00 0.00 93 1012.7
20260509060904 56 0 0.0 0.0 0.00 0.00 0.00 93 1012.8
20260509060004 57 0 0.0 0.0 0.00 0.00 0.00 92 1013.1
20260509055406 57 0 0.0 0.0 0.00 0.00 0.00 92 1013.2
20260509054503 58 0 0.0 0.0 0.00 0.00 0.00 91 1013.4
20260509053604 58 0 0.0 0.0 0.00 0.00 0.00 91 1013.3
20260509052725 58 0 0.0 0.0 0.00 0.00 0.00 91 1013.6
20260509051803 58 0 0.0 0.0 0.00 0.00 0.00 91 1013.8
20260509050903 58 0 0.0 0.0 0.00 0.00 0.00 91 1014.0
20260509050011 58 0 0.0 0.0 0.00 0.00 0.00 92 1013.9
20260509045403 58 0 0.0 0.0 0.00 0.00 0.00 91 1013.9
20260509044524 59 0 0.0 0.0 0.00 0.00 0.00 91 1013.8
20260509043603 59 0 0.0 0.0 0.00 0.00 0.00 90 1013.8
20260509042703 59 0 0.0 0.0 0.00 0.00 0.00 91 1013.9
20260509041824 59 145 0.0 1.0 0.00 0.00 0.00 91 1014.1
20260509040903 59 118 0.0 1.0 0.00 0.00 0.00 91 1014.1
20260509040004 59 118 0.0 1.0 0.00 0.00 0.00 92 1014.2
20260509035403 59 0 0.0 0.0 0.00 0.00 0.00 92 1014.2
20260509034525 59 0 0.0 0.0 0.00 0.00 0.00 91 1014.4
20260509033603 59 0 0.0 0.0 0.00 0.00 0.00 91 1014.4
20260509032703 59 0 0.0 0.0 0.00 0.00 0.00 91 1014.5
20260509031805 59 0 0.0 0.0 0.00 0.00 0.00 91 1014.6
20260509030952 59 0 0.0 0.0 0.00 0.00 0.00 90 1014.7
20260509030006 59 0 0.0 0.0 0.00 0.00 0.00 90 1014.4
20260509025404 59 0 0.0 0.0 0.00 0.00 0.00 90 1014.4
20260509024505 59 0 0.0 0.0 0.00 0.00 0.00 89 1014.3
20260509023604 60 120 0.0 1.0 0.00 0.00 0.00 89 1014.3
20260509022704 60 0 0.0 0.0 0.00 0.00 0.00 88 1014.4
20260509021804 60 0 0.0 0.0 0.00 0.00 0.00 88 1014.4
20260509020906 60 0 0.0 0.0 0.00 0.00 0.00 88 1014.3
20260509020005 61 120 0.0 1.0 0.00 0.00 0.00 88 1014.3
20260509015404 61 120 0.0 1.0 0.00 0.00 0.00 87 1014.3
20260509014505 61 0 0.0 0.0 0.00 0.00 0.00 87 1014.4
20260509013605 61 121 0.0 1.0 0.00 0.00 0.00 87 1014.2
20260509012705 61 0 0.0 0.0 0.00 0.00 0.00 86 1014.3
20260509011805 61 0 0.0 0.0 0.00 0.00 0.00 86 1014.1
20260509010905 61 0 0.0 0.0 0.00 0.00 0.00 86 1014.0
20260509010005 61 0 0.0 0.0 0.00 0.00 0.00 87 1014.0
20260509005405 62 0 0.0 0.0 0.00 0.00 0.00 86 1013.9
20260509004535 62 0 0.0 0.0 0.00 0.00 0.00 85 1013.8
20260509003626 62 0 0.0 0.0 0.00 0.00 0.00 84 1013.9
20260509002704 62 0 0.0 0.0 0.00 0.00 0.00 84 1014.1
20260509001804 63 116 0.0 1.0 0.00 0.00 0.00 85 1014.0
20260509000925 63 0 0.0 0.0 0.00 0.00 0.00 85 1013.8
20260509000004 64 0 0.0 0.0 0.00 0.00 0.00 83 1013.6
20260508235405 64 0 0.0 0.0 0.00 0.00 0.00 82 1013.5
20260508234504 64 0 0.0 0.0 0.00 0.00 0.00 79 1013.5
20260508233604 65 115 0.0 1.0 0.00 0.00 0.00 80 1013.2
20260508232704 66 115 0.0 1.0 0.00 0.00 0.00 75 1013.5
20260508231805 66 0 0.0 0.0 0.00 0.00 0.00 77 1013.4
20260508230904 67 0 0.0 0.0 0.00 0.00 0.00 76 1013.5
20260508230004 67 0 0.0 0.0 0.00 0.00 0.00 76 1013.5
20260508225439 67 0 0.0 0.0 0.00 0.00 0.00 77 1013.7
20260508224505 68 0 0.0 0.0 0.00 0.00 0.00 73 1013.7
20260508223626 68 115 0.0 1.0 0.00 0.00 0.00 77 1013.5
20260508222735 68 0 0.0 0.0 0.00 0.00 0.00 76 1013.7
20260508221804 69 0 0.0 0.0 0.00 0.00 0.00 71 1013.6
20260508220905 70 0 0.0 0.0 0.00 0.00 0.00 70 1013.7
20260508220034 71 115 0.0 1.0 0.00 0.00 0.00 60 1013.5
20260508215426 71 118 0.0 1.0 0.00 0.00 0.00 63 1013.4
20260508214505 72 126 0.0 1.0 0.00 0.00 0.00 62 1013.6
20260508213605 72 223 0.0 1.0 0.00 0.00 0.00 61 1013.8
20260508212704 72 164 0.0 1.0 0.00 0.00 0.00 54 1013.8
20260508211804 72 141 0.0 1.0 0.00 0.00 0.00 55 1013.8
20260508210905 72 133 0.0 1.0 0.00 0.00 0.00 56 1013.8
20260508210005 72 123 0.0 3.0 0.00 0.00 0.00 55 1013.5
20260508205404 72 270 0.0 4.0 0.00 0.00 0.00 53 1013.6
20260508204504 71 258 1.0 4.0 0.00 0.00 0.00 56 1013.6
20260508203623 71 292 2.0 4.0 0.00 0.00 0.00 55 1013.8
20260508202704 71 307 2.0 6.0 0.00 0.00 0.00 53 1013.9
20260508201827 71 289 3.0 7.0 0.00 0.00 0.00 53 1014.2
20260508200914 72 280 1.0 6.0 0.00 0.00 0.00 50 1014.3
20260508200005 72 161 1.0 3.0 0.00 0.00 0.00 50 1014.2
20260508195404 72 215 1.0 4.0 0.00 0.00 0.00 51 1014.2
20260508194505 73 126 1.0 4.0 0.00 0.00 0.00 50 1014.3
20260508193605 73 113 2.0 6.0 0.00 0.00 0.00 50 1014.3
20260508192704 74 86 1.0 6.0 0.00 0.00 0.00 51 1014.5
20260508191842 74 121 1.0 4.0 0.00 0.00 0.00 51 1014.7
20260508190904 73 199 1.0 4.0 0.00 0.00 0.00 50 1014.9
20260508190005 74 163 1.0 4.0 0.00 0.00 0.00 50 1015.0
20260508185404 73 231 1.0 4.0 0.00 0.00 0.00 52 1015.1
20260508184505 73 207 1.0 5.0 0.00 0.00 0.00 48 1015.2
20260508183605 72 245 2.0 8.0 0.00 0.00 0.00 52 1015.3
20260508182704 73 258 1.0 6.0 0.00 0.00 0.00 52 1015.5
20260508181806 73 212 1.0 4.0 0.00 0.00 0.00 51 1015.5